PERSEUS-M2

Last updated on Tue Jul 01 2025 00:03:44 GMT+0000 (Coordinated Universal Time)

1 40037U 14033AD 25181.60381881 .00000969 00000+0 96908-4 0 9996 2 40037 97.9559 121.4205 0013083 30.8924 329.3062 14.93794756598266
UTC large
Height (km)
Speed (km/s)
/
Latitude / Longitude
Inclination (degrees)
Orbital Period (minutes)
Azimuth
Elevation
Range (km)
Doppler Factor

Next 0 passes for location: London (51.5072 / 0.1276)

Sorry there are no passes over London.